Volver al catálogo

COSMOS 1391

ActivoMilitarLEO
NORAD 13378·PAYLOAD·🇷🇺 Russia

Lanzado Jul 21, 1982 desde Plesetsk Cosmodrome

Loading…

Próximos Pases (próximas 24 horas)

TLE

ActualizadoSource: Space-Track

Época: Sep 14, 2026, 10:39 UTC

1 13378U 82073D   26257.44420909  .00000008  00000-0  15239-3 0  9997
2 13378  74.0148 142.7558 0021091 313.4913 220.4285 12.51435192 17001

Sigue COSMOS 1391 en tiempo real con AllMySat

Download on the App Store